Regional Weather Roundup
Issued by NWS

Home | Current Version | Previous Version | Graphics & Text | Print | Product List | Glossary Off
Versions: 1 2 3 4 5 6 7 8 9 10 11 12 13 14 15 16 17 18 19 20 21 22 23 24 25 26 27 28 29 30 31 32 33 34 35 36 37 38 39 40 41 42 43 44 45 46 47 48 49 50

000
ASUS43 KFSD 012310
RWRSD

WEATHER ROUNDUP FOR SOUTH DAKOTA
NATIONAL WEATHER SERVICE SIOUX FALLS SD
500 PM CST SUN MAR 01 2015

NOTE: "FAIR" INDICATES FEW OR NO CLOUDS BELOW 12,000 FEET WITH NO
SIGNIFICANT WEATHER AND/OR OBSTRUCTIONS TO VISIBILITY.


SDZ001>005-009-010-012>017-020000-
NORTHWEST AND NORTH CENTRAL SOUTH DAKOTA

CITY           SKY/WX    TMP DP  RH WIND       PRES   REMARKS
BUFFALO          N/A     25   8  48 NW17      30.20F WCI  12
FAITH            N/A     27   7  42 NW18      30.29R WCI  14
MOBRIDGE       CLOUDY    29  15  56 NW14      30.29R WCI  18
$$

SDZ012>016-024>037-041>051-057-063-072>074-020000-
SOUTHWEST AND SOUTH CENTRAL SOUTH DAKOTA

CITY           SKY/WX    TMP DP  RH WIND       PRES   REMARKS
RAPID CTY ARPT SUNNY     26  12  55 N23       30.25R WCI  11
PIERRE         MOSUNNY   33   9  36 NW22      30.31R WCI  21
CUSTER         SUNNY     25  -5  26 VRB3      30.14R
ELLSWORTH AFB  SUNNY     27  10  49 N20       30.25R WCI  13
PHILIP         MOSUNNY   32   7  35 NW20G26   30.32R WCI  20
PINE RIDGE     SUNNY     34   5  29 CALM      30.25R
WINNER         FAIR      32   5  32 NW13G23   30.32R WCI  22
$$

SDZ004>011-016>023-039-040-020000-
NORTHEAST SOUTH DAKOTA

CITY           SKY/WX    TMP DP  RH WIND       PRES   REMARKS
ABERDEEN       SUNNY     26  14  60 NW16      30.33R WCI  14
WATERTOWN      FLURRIES  24  15  68 NW20      30.27R WCI  10
SISSETON         N/A     25  12  58 NW23G32   30.28  WCI  10
$$

SDZ017-020-022-023-036>040-048>070-020000-
SOUTHEAST SOUTH DAKOTA

CITY           SKY/WX    TMP DP  RH WIND       PRES   REMARKS
SIOUX FALLS    MOSUNNY   30  16  56 NW17G26   30.30R WCI  18
HURON          MOSUNNY   29  16  58 NW18G24   30.33R WCI  16
CHAMBERLAIN    MOSUNNY   32   8  36 N13G24    30.32R WCI  22
MITCHELL       SUNNY     33  12  41 N20G28    30.34R WCI  21
YANKTON        SUNNY     36   9  32 NW18      30.34R
$$

ABBREVIATIONS USED IN REMARKS
   TC - TEMPERATURE IN CELSIUS
  WCI - WIND CHILL INDEX
   HX - HEAT INDEX
  VSB - VISIBILITY



USA.gov is the U.S. government's official web portal to all federal, state and local government web resources and services.